Location: Gerlach
(40.6516°N, 119.3568°W)
Time: 19:14:43
(UTC-07:00)

Tiangong - Visible Passes

Search period start: 06 October 2022 00:00
Search period end: 16 October 2022 00:00
Orbit: 383 x 385 km, 41.5° (Epoch: 06 October)

Date Brightness Start Highest point End Pass type
(mag) Time Alt. Az. Time Alt. Az. Time Alt. Az.
06 Oct -0.1 19:51:31 10° SSW 19:53:04 17° SSE 19:53:04 17° SSE visible
07 Oct 0.1 20:27:19 10° SW 20:28:31 20° SW 20:28:31 20° SW visible
08 Oct -1.0 19:27:40 10° SW 19:30:27 29° SSE 19:31:35 22° ESE visible
09 Oct -1.9 20:03:54 10° WSW 20:06:42 62° SSW 20:06:42 62° SSW visible
10 Oct -1.6 19:03:56 10° SW 19:06:58 46° SSE 19:09:29 14° E visible
10 Oct 0.6 20:40:34 10° W 20:41:40 20° W 20:41:40 20° W visible
11 Oct -2.3 19:40:22 10° W 19:43:31 88° N 19:44:21 46° ENE visible
12 Oct -0.8 20:16:58 10° W 20:19:06 39° WNW 20:19:06 39° WNW visible
13 Oct -2.1 19:16:38 10° W 19:19:47 76° N 19:21:37 23° E visible
13 Oct 1.4 20:53:29 10° W 20:53:47 12° W 20:53:47 12° W visible
14 Oct -2.2 19:53:07 10° W 19:56:14 81° N 19:56:14 81° N visible
15 Oct -2.1 18:52:41 10° W 18:55:49 73° N 18:58:39 12° E visible
15 Oct 0.4 20:29:31 10° W 20:30:49 22° W 20:30:49 22° W visible
